LANDSAT 9

Last updated on Fri Sep 19 2025 00:02:31 GMT+0000 (Coordinated Universal Time)

1 49260U 21088A 25261.05977487 .00000355 00000+0 88794-4 0 9995 2 49260 98.2195 330.3651 0001301 99.8747 260.2598 14.57115420211373
UTC large
Height (km)
Speed (km/s)
/
Latitude / Longitude
Inclination (degrees)
Orbital Period (minutes)
Azimuth
Elevation
Range (km)
Doppler Factor

Next 0 passes for location: London (51.5072 / 0.1276)

Sorry there are no passes over London.